Location: ??????????
(48.4699°N, 37.9573°E)
Time: 21:07:47
(UTC+00:00)

Cosmos 1833 Rocket - Pass Details

Date: 20 January 2021
Orbit: 833 x 839 km, 71.0° (Epoch: 02 March)

Event Time Altitude Azimuth Distance (km) Brightness Sun altitude
Rises 16:06:04 0° 336° (NNW) 3,392 6.0 -19.2°
Reaches altitude 10° 16:08:51 10° 347° (NNW) 2,455 5.2 -19.6°
Enters shadow 16:13:18 29° 39° (NE) 1,496 3.6 -20.3°
